FENGYUN 1C DEB

Satellite information

Favourite Embed

Satellite Type and Status

DEBRISIN ORBIT

Key statistics

Satellite FENGYUN 1C DEB at a glance.

Uptime

9555

Days in orbit

Revolutions

≈ 14.0

Per day

Orbit

SSO

Sun Synchronous Orbit

Inclination

99.2

Latest

Satellite identification and parameters

Extended collection of information and parameters for FENGYUN 1C DEB.

Object identification

Identified? True

Debris? True

Object name: FENGYUN 1C DEB

International designator: 1999-025DGY

Object number (NORAD): 33711

Object ID (CCSDS): 33711

Country: PEOPLES REPUBLIC OF CHINA (PRC)

Current information (Y/N): Y

RCS size: SMALL

Orbital parameters

Period: 102.813 minutes

Inclination: 99.2153 deg

SMA: 7269.842 km

Apoapsis: 964.124 km

Periapsis: 819.29 km

RAAN: 239.0164 deg

Eccentricy: 0.0099613

Argument of periapsis: 126.9921 deg

Mean anomaly: 24.0986 deg

Mean motion: 14.00603931 rev/day

Mean motion (dot): 0.00000471 rev/day2

B* drag term: 0.00033223 1/REarth

Two-line elements (TLE)

Creation date: July 5, 2025, 5:45 p.m.

Reference frame: TEME

Reference center: EARTH

Epoch: July 5, 2025, 3:15 p.m. UTC

TLE line 0: 0 FENGYUN 1C DEB

TLE line 1: 1 33711U 99025DGY 25186.63576578 .00000471 00000-0 33223-3 0 9997

TLE line 2: 2 33711 99.2153 239.0164 0099613 126.9921 24.0986 14.00603931896907

Live tracking on map

Real-time ground track for satellite FENGYUN 1C DEB.

In-orbit conjunctions

A list of the most updated potential collisions computed for object FENGYUN 1C DEB.

Target Orbit TCA Probability of collision Miss distance Type
COSMOS 2237 LEO 2025-06-07 22:01:25 0.0004925236 112.0 (m) PAYLOAD
SL-8 R/B LEO 2025-04-23 13:14:54 0.0001358304 49.0 (m) ROCKET BODY
DMSP 5D-2 F8 (USA 26) SSO 2024-11-13 12:55:15 0.0001251221 857.0 (m) PAYLOAD
COSMOS 2181 LEO 2024-08-26 21:41:33 0.0005429036 182.0 (m) PAYLOAD
SL-16 R/B LEO 2024-08-19 22:14:27 0.0001156416 108.0 (m) ROCKET BODY

Associated space launch

Chinese polar orbiting meteorological satellite

FENGYUN 1C DEB was lifted into orbit during the mission ‘Long March 4B | Feng Yun 1C’, on board a Long March 4B space rocket.

The launch took place on May 10, 1999, 1:33 a.m. from Launch Complex 7.

For more information about the launch, click the button.

Launch to space Long March 4B | Feng Yun 1C
Long March 4B | Feng Yun 1C

Agency: N/A

Status: Launch Successful

Launch date: May 10, 1999, 1:33 a.m. UTC

Rocket: Long March 4B

Launch pad: Launch Complex 7

Location: Taiyuan Satellite Launch Center, People's Republic of China

...

Latest news about this satellite

There are no fresh news available about this satellite. Check back as we update our databases every day.


Newsletter sign-up

Weekly statistics, charts and insights to help you stay on top of the space industry.